• In Russia
  • List of Countries
  • For 7 days
  • Water Temperature
  • Satellite Maps
  • Weather Map
  • Weather Widgets
  • user-avatar
    Login

    Hourly Weather Mansa

    Today, 19 October, Friday

    Time Temperature Precipitation Wind Pressure Humidity
    00:00 +24°C° 0 mm 2 mps 658 mmHg 65%
    01:00 +24°C° 0 mm 2 mps 658 mmHg 67%
    02:00 +23°C° 0 mm 1 mps 658 mmHg 68%
    03:00 +23°C° 0 mm 1 mps 658 mmHg 71%
    04:00 +22°C° 0 mm 1 mps 658 mmHg 74%
    05:00 +20°C° 0 mm 0 mps 658 mmHg 77%
    06:00 +22°C° 0 mm 0 mps 659 mmHg 68%
    07:00 +24°C° 0 mm 0 mps 660 mmHg 60%
    08:00 +26°C° 0 mm 0 mps 661 mmHg 52%
    09:00 +31°C° 0 mm 1 mps 661 mmHg 44%
    10:00 +34°C° 0 mm 1 mps 662 mmHg 36%
    11:00 +37°C° 0 mm 1 mps 662 mmHg 27%
    12:00 +36°C° 0 mm 1 mps 661 mmHg 27%
    13:00 +37°C° 0 mm 2 mps 660 mmHg 26%
    14:00 +36°C° 0 mm 2 mps 659 mmHg 25%
    15:00 +36°C° 0 mm 2 mps 659 mmHg 26%
    16:00 +35°C° 0 mm 2 mps 659 mmHg 26%
    17:00 +35°C° 0 mm 2 mps 659 mmHg 27%
    18:00 +32°C° 0 mm 2 mps 659 mmHg 30%
    19:00 +31°C° 0 mm 1 mps 659 mmHg 32%
    20:00 +30°C° 0 mm 1 mps 659 mmHg 35%
    21:00 +29°C° 0 mm 1 mps 659 mmHg 36%
    22:00 +29°C° 0 mm 1 mps 659 mmHg 38%
    23:00 +29°C° 0 mm 1 mps 659 mmHg 39%

    Tomorrow, 20 October, Saturday

    Time Temperature Precipitation Wind Pressure Humidity
    00:00 +28°C° 0.1 mm 1 mps 659 mmHg 42%
    01:00 +27°C° 0.1 mm 1 mps 659 mmHg 44%
    02:00 +26°C° 0.1 mm 2 mps 659 mmHg 47%
    03:00 +26°C° 0 mm 2 mps 659 mmHg 48%
    04:00 +25°C° 0 mm 2 mps 659 mmHg 49%
    05:00 +24°C° 0 mm 2 mps 659 mmHg 51%
    06:00 +26°C° 0 mm 2 mps 660 mmHg 47%
    07:00 +27°C° 0 mm 3 mps 660 mmHg 44%
    08:00 +29°C° 0 mm 4 mps 661 mmHg 41%
    09:00 +32°C° 0 mm 4 mps 661 mmHg 36%
    10:00 +34°C° 0 mm 4 mps 661 mmHg 31%
    11:00 +36°C° 0 mm 4 mps 661 mmHg 27%
    12:00 +36°C° 0 mm 4 mps 661 mmHg 25%
    13:00 +37°C° 0 mm 4 mps 660 mmHg 23%
    14:00 +38°C° 0 mm 4 mps 659 mmHg 21%
    15:00 +36°C° 0 mm 4 mps 659 mmHg 23%
    16:00 +35°C° 0 mm 4 mps 659 mmHg 25%
    17:00 +34°C° 0 mm 3 mps 658 mmHg 27%
    18:00 +33°C° 0 mm 3 mps 659 mmHg 30%
    19:00 +31°C° 0 mm 3 mps 659 mmHg 34%
    20:00 +29°C° 0 mm 2 mps 660 mmHg 37%
    21:00 +28°C° 0.5 mm 2 mps 660 mmHg 44%
    22:00 +27°C° 0.5 mm 3 mps 660 mmHg 50%
    23:00 +26°C° 0.5 mm 3 mps 660 mmHg 56%

    Day after tomorrow, 21 October, Sunday

    Time Temperature Precipitation Wind Pressure Humidity
    00:00 +25°C° 0.4 mm 3 mps 660 mmHg 58%
    01:00 +25°C° 0.4 mm 2 mps 660 mmHg 61%
    02:00 +25°C° 0.4 mm 2 mps 659 mmHg 63%
    03:00 +24°C° 0 mm 2 mps 659 mmHg 65%
    04:00 +24°C° 0 mm 3 mps 659 mmHg 66%
    05:00 +22°C° 0 mm 3 mps 659 mmHg 67%
    06:00 +25°C° 0 mm 4 mps 660 mmHg 62%
    07:00 +26°C° 0 mm 4 mps 661 mmHg 56%
    08:00 +27°C° 0 mm 5 mps 662 mmHg 50%
    09:00 +29°C° 0 mm 5 mps 662 mmHg 44%
    10:00 +32°C° 0 mm 5 mps 662 mmHg 38%
    11:00 +34°C° 0 mm 5 mps 662 mmHg 32%
    12:00 +34°C° 0 mm 5 mps 661 mmHg 32%
    13:00 +34°C° 0 mm 4 mps 661 mmHg 32%
    14:00 +34°C° 0 mm 4 mps 660 mmHg 32%
    15:00 +33°C° 0 mm 4 mps 660 mmHg 34%
    16:00 +32°C° 0 mm 4 mps 659 mmHg 36%
    17:00 +32°C° 0 mm 4 mps 659 mmHg 38%
    18:00 +29°C° 0 mm 5 mps 660 mmHg 42%
    19:00 +28°C° 0 mm 5 mps 660 mmHg 45%
    20:00 +27°C° 0 mm 5 mps 661 mmHg 49%
    21:00 +26°C° 0 mm 5 mps 661 mmHg 53%
    22:00 +25°C° 0 mm 5 mps 661 mmHg 57%
    23:00 +23°C° 0 mm 5 mps 661 mmHg 62%

    22 October, Monday

    Time Temperature Precipitation Wind Pressure Humidity
    00:00 +23°C° 0 mm 5 mps 660 mmHg 64%
    01:00 +22°C° 0 mm 4 mps 660 mmHg 65%
    02:00 +22°C° 0 mm 4 mps 660 mmHg 67%
    03:00 +21°C° 0 mm 4 mps 660 mmHg 68%
    04:00 +21°C° 0 mm 4 mps 660 mmHg 68%
    05:00 +20°C° 0 mm 4 mps 660 mmHg 69%
    06:00 +21°C° 0 mm 5 mps 661 mmHg 64%
    07:00 +22°C° 0 mm 5 mps 662 mmHg 59%
    08:00 +23°C° 0 mm 6 mps 663 mmHg 54%
    09:00 +26°C° 0 mm 6 mps 663 mmHg 49%
    10:00 +28°C° 0 mm 5 mps 662 mmHg 44%
    11:00 +29°C° 0 mm 5 mps 662 mmHg 39%
    12:00 +30°C° 0 mm 5 mps 662 mmHg 36%
    13:00 +32°C° 0 mm 4 mps 661 mmHg 33%
    14:00 +34°C° 0 mm 4 mps 660 mmHg 30%
    15:00 +33°C° 0 mm 4 mps 660 mmHg 31%
    16:00 +32°C° 0 mm 4 mps 660 mmHg 32%
    17:00 +30°C° 0 mm 4 mps 660 mmHg 34%
    18:00 +29°C° 0 mm 4 mps 660 mmHg 37%
    19:00 +28°C° 0 mm 5 mps 661 mmHg 41%
    20:00 +26°C° 0 mm 5 mps 661 mmHg 45%
    21:00 +25°C° 0 mm 5 mps 661 mmHg 49%
    22:00 +23°C° 0 mm 5 mps 662 mmHg 53%
    23:00 +22°C° 0 mm 5 mps 662 mmHg 57%

    23 October, Tuesday

    Time Temperature Precipitation Wind Pressure Humidity
    00:00 +21°C° 0 mm 5 mps 661 mmHg 59%
    01:00 +21°C° 0 mm 5 mps 661 mmHg 61%
    02:00 +20°C° 0 mm 5 mps 660 mmHg 62%
    03:00 +20°C° 0 mm 4 mps 661 mmHg 63%
    04:00 +20°C° 0 mm 4 mps 661 mmHg 65%
    05:00 +19°C° 0 mm 4 mps 661 mmHg 66%
    06:00 +20°C° 0 mm 4 mps 662 mmHg 62%
    07:00 +21°C° 0 mm 4 mps 662 mmHg 58%
    08:00 +22°C° 0 mm 5 mps 663 mmHg 54%
    09:00 +26°C° 0 mm 4 mps 663 mmHg 48%
    10:00 +28°C° 0 mm 4 mps 663 mmHg 41%
    11:00 +30°C° 0 mm 4 mps 663 mmHg 35%
    12:00 +31°C° 0 mm 3 mps 662 mmHg 31%
    13:00 +34°C° 0 mm 3 mps 661 mmHg 27%
    14:00 +35°C° 0 mm 2 mps 661 mmHg 23%
    15:00 +35°C° 0 mm 2 mps 660 mmHg 23%
    16:00 +34°C° 0 mm 2 mps 660 mmHg 23%
    17:00 +34°C° 0 mm 2 mps 660 mmHg 23%
    18:00 +31°C° 0 mm 2 mps 660 mmHg 26%
    19:00 +29°C° 0 mm 1 mps 660 mmHg 29%
    20:00 +27°C° 0 mm 1 mps 660 mmHg 31%
    21:00 +27°C° 0 mm 2 mps 660 mmHg 33%
    22:00 +26°C° 0 mm 2 mps 660 mmHg 35%
    23:00 +26°C° 0 mm 3 mps 660 mmHg 37%

    24 October, Wednesday

    Time Temperature Precipitation Wind Pressure Humidity
    00:00 +25°C° 0 mm 3 mps 660 mmHg 38%
    01:00 +25°C° 0 mm 3 mps 660 mmHg 40%
    02:00 +24°C° 0 mm 3 mps 660 mmHg 41%
    03:00 +24°C° 0 mm 3 mps 660 mmHg 43%
    04:00 +22°C° 0 mm 3 mps 660 mmHg 45%
    05:00 +22°C° 0 mm 3 mps 660 mmHg 47%
    06:00 +24°C° 0 mm 3 mps 661 mmHg 44%
    07:00 +25°C° 0 mm 4 mps 662 mmHg 42%
    08:00 +26°C° 0 mm 4 mps 663 mmHg 39%
    09:00 +28°C° 0 mm 4 mps 663 mmHg 34%
    10:00 +30°C° 0 mm 4 mps 663 mmHg 30%
    11:00 +33°C° 0 mm 4 mps 662 mmHg 25%
    12:00 +35°C° 0 mm 3 mps 662 mmHg 23%
    13:00 +36°C° 0 mm 3 mps 661 mmHg 21%
    14:00 +37°C° 0 mm 3 mps 660 mmHg 19%
    15:00 +36°C° 0 mm 2 mps 660 mmHg 19%
    16:00 +35°C° 0 mm 2 mps 660 mmHg 20%
    17:00 +35°C° 0 mm 2 mps 659 mmHg 20%
    18:00 +32°C° 0 mm 2 mps 659 mmHg 22%
    19:00 +30°C° 0 mm 2 mps 659 mmHg 25%
    20:00 +29°C° 0 mm 2 mps 660 mmHg 27%
    21:00 +28°C° 0 mm 2 mps 660 mmHg 29%
    22:00 +28°C° 0 mm 3 mps 660 mmHg 31%
    23:00 +28°C° 0 mm 4 mps 660 mmHg 32%
    Show more